Shelbyville, IN

1:22 PM EST on February 21, 2017 (GMT -0500)
Shelbyville Municipal

Weather History for KGEZ - December, 2014

Change the Weather History Date:

Wednesday, December 24, 2014

  Actual Average Record
Temperature  
Mean Temperature 44 °F 30 °F  
Max Temperature 50 °F 37 °F 58 °F (2015)
Min Temperature 38 °F 22 °F -20 °F (2004)
Degree Days  
Heating Degree Days 21 35  
Month to date heating degree days 679 779  
Since 1 July heating degree days 1863 1854  
Cooling Degree Days 0 0  
Month to date cooling degree days 0 0  
Year to date cooling degree days 1080 913  
Moisture  
Dew Point 40 °F    
Average Humidity 88    
Maximum Humidity 96    
Minimum Humidity 79    
Precipitation  
Precipitation 0.29 in 0.13 in 0.84 in (2008)
Month to date precipitation 2.54 2.48  
Year to date precipitation 39.50 42.77  
Sea Level Pressure  
Sea Level Pressure 29.57 in    
Wind  
Wind Speed 13 mph (NW)    
Max Wind Speed 22 mph    
Max Gust Speed 29 mph    
Visibility 6 miles    
Events Rain    
T = Trace of Precipitation, MM = Missing Value Source: NWS Daily Summary

Daily Weather History Graph

Daily Weather History Graph

Search for Another Location

Airport or City:

Trip Planner

Search our weather history database for the weather conditions in past years. The results will help you decide how hot, cold, wet, or windy it might be!

Date:

Astronomy

Dec. 24, 2014 Rise Set
Actual Time 8:01 AM EST 5:24 PM EST
Civil Twilight 7:31 AM EST 5:54 PM EST
Nautical Twilight 6:57 AM EST 6:28 PM EST
Astronomical Twilight 6:24 AM EST 7:01 PM EST
Moon 9:53 AM EST (12/24) 8:47 PM EST (12/24)
Length of Visible Light 10h 23m
Length of Day
9h 22m
Waxing Crescent, 9% of the Moon is Illuminated
Dec 24
Waxing Crescent
Dec 28
First Quarter
Jan 4
Full
Jan 13
Last Quarter
Jan 20
New

Hourly Weather History & Observations

Time (EST) Temp. Windchill Dew Point Humidity Pressure Visibility Wind Dir Wind Speed Gust Speed Precip Events Conditions
12:53 AM 50.0 °F - 46.9 °F 89% 29.62 in 2.5 mi North 8.1 mph - 0.01 in   Overcast
1:37 AM 48.9 °F - 46.9 °F 93% 29.62 in 3.0 mi North 9.2 mph - 0.01 in   Overcast
1:53 AM 48.9 °F - 46.9 °F 93% 29.62 in 3.0 mi North 3.5 mph - 0.01 in   Overcast
2:01 AM 48.9 °F - 46.9 °F 93% 29.61 in 2.0 mi North 5.8 mph - N/A   Overcast
2:14 AM 48.9 °F - 46.9 °F 93% 29.62 in 3.0 mi NNW 6.9 mph - 0.00 in Rain Light Rain
2:42 AM 48.0 °F - 45.0 °F 89% 29.62 in 2.0 mi NNW 9.2 mph - 0.01 in Rain Light Rain
2:53 AM 46.9 °F - 45.0 °F 93% 29.62 in 2.5 mi North 12.7 mph - 0.01 in Rain Light Rain
3:02 AM 46.9 °F - 44.1 °F 90% 29.62 in 3.0 mi North 10.4 mph - 0.00 in   Overcast
3:14 AM 46.9 °F - 44.1 °F 90% 29.62 in 2.5 mi North 10.4 mph - 0.00 in   Overcast
3:38 AM 46.0 °F 39.9 °F 43.0 °F 89% 29.61 in 3.0 mi North 13.8 mph - 0.01 in   Overcast
3:53 AM 45.0 °F 38.9 °F 43.0 °F 93% 29.61 in 4.0 mi North 12.7 mph - 0.01 in   Overcast
4:53 AM 44.1 °F 37.4 °F 42.1 °F 93% 29.57 in 6.0 mi North 13.8 mph - N/A   Overcast
5:53 AM 44.1 °F 38.6 °F 41.0 °F 89% 29.57 in 3.0 mi North 10.4 mph - N/A   Overcast
6:01 AM 44.1 °F 37.4 °F 41.0 °F 89% 29.56 in 2.5 mi North 13.8 mph - 0.00 in Rain Light Rain
6:12 AM 44.1 °F 38.1 °F 41.0 °F 89% 29.56 in 3.0 mi North 11.5 mph - 0.00 in Rain Light Rain
6:41 AM 44.1 °F 38.6 °F 41.0 °F 89% 29.56 in 6.0 mi North 10.4 mph - 0.00 in Rain Light Rain
6:53 AM 44.1 °F 38.1 °F 41.0 °F 89% 29.56 in 10.0 mi North 11.5 mph - 0.01 in   Overcast
7:53 AM 44.1 °F 39.0 °F 41.0 °F 89% 29.56 in 3.0 mi North 9.2 mph - N/A   Overcast
8:53 AM 43.0 °F 39.5 °F 41.0 °F 93% 29.53 in 4.0 mi North 5.8 mph - 0.00 in   Overcast
9:53 AM 43.0 °F 38.8 °F 41.0 °F 93% 29.52 in 2.5 mi North 6.9 mph - 0.02 in Rain Light Rain
10:25 AM 43.0 °F 36.4 °F 39.9 °F 89% 29.53 in 1.5 mi NW 12.7 mph - 0.02 in Rain Light Rain
10:44 AM 43.0 °F 36.4 °F 39.9 °F 89% 29.52 in 3.0 mi NNW 12.7 mph - 0.04 in Rain Light Rain
10:53 AM 43.0 °F 35.4 °F 39.9 °F 89% 29.52 in 4.0 mi NNW 16.1 mph - 0.04 in Rain Light Rain
11:36 AM 43.0 °F 35.4 °F 39.9 °F 89% 29.48 in 2.5 mi North 16.1 mph - 0.01 in Rain Light Rain
11:43 AM 43.0 °F 36.0 °F 39.9 °F 89% 29.48 in 3.0 mi North 13.8 mph - 0.01 in   Overcast
11:53 AM 44.1 °F 38.6 °F 41.0 °F 89% 29.47 in 4.0 mi North 10.4 mph - 0.01 in   Overcast
12:53 PM 44.1 °F 38.1 °F 39.9 °F 85% 29.45 in 7.0 mi NNW 11.5 mph - 0.00 in Rain Light Rain
1:07 PM 44.1 °F 39.5 °F 41.0 °F 89% 29.44 in 2.5 mi NW 8.1 mph - 0.01 in Rain Light Rain
1:20 PM 43.0 °F 36.0 °F 39.9 °F 89% 29.42 in 1.8 mi NW 13.8 mph - 0.05 in Rain Rain
1:26 PM 43.0 °F 35.4 °F 39.9 °F 89% 29.42 in 3.0 mi NW 16.1 mph - 0.06 in Rain Light Rain
1:53 PM 43.0 °F 36.8 °F 39.9 °F 89% 29.46 in 3.0 mi West 11.5 mph - 0.11 in Rain Heavy Rain
2:19 PM 43.0 °F 36.0 °F 39.0 °F 86% 29.44 in 9.0 mi WNW 13.8 mph - 0.05 in Rain Light Rain
2:53 PM 42.1 °F 34.2 °F 37.0 °F 82% 29.47 in 10.0 mi WNW 16.1 mph - 0.06 in Rain Light Rain
3:53 PM 41.0 °F 32.8 °F 37.0 °F 86% 29.50 in 10.0 mi West 16.1 mph - 0.00 in   Overcast
4:53 PM 41.0 °F 31.9 °F 36.0 °F 82% 29.55 in 10.0 mi West 19.6 mph - 0.00 in   Overcast
5:53 PM 41.0 °F 32.2 °F 36.0 °F 82% 29.58 in 10.0 mi West 18.4 mph - N/A   Overcast
6:31 PM 39.0 °F 30.3 °F 34.0 °F 82% 29.60 in 10.0 mi West 16.1 mph - 0.00 in Rain Light Rain
6:53 PM 39.0 °F 31.0 °F 34.0 °F 82% 29.62 in 10.0 mi West 13.8 mph - 0.00 in   Overcast
7:33 PM 39.0 °F 30.6 °F 35.1 °F 86% 29.64 in 9.0 mi WSW 15.0 mph - N/A   Overcast
7:53 PM 39.0 °F 30.6 °F 35.1 °F 86% 29.66 in 10.0 mi WSW 15.0 mph - 0.00 in Rain Light Rain
8:53 PM 39.0 °F 31.4 °F 35.1 °F 86% 29.67 in 10.0 mi WSW 12.7 mph - 0.00 in   Overcast
9:53 PM 39.0 °F 30.6 °F 34.0 °F 82% 29.69 in 7.0 mi WSW 15.0 mph - 0.00 in Rain Light Rain
10:18 PM 37.9 °F 30.0 °F 35.1 °F 89% 29.69 in 10.0 mi WSW 12.7 mph - 0.00 in   Overcast
10:29 PM 37.9 °F 30.9 °F 35.1 °F 89% 29.69 in 10.0 mi WSW 10.4 mph - 0.00 in   Overcast
10:53 PM 39.0 °F 30.3 °F 34.0 °F 82% 29.70 in 10.0 mi WSW 16.1 mph - 0.00 in   Overcast
11:53 PM 39.0 °F 31.0 °F 34.0 °F 82% 29.72 in 10.0 mi WSW 13.8 mph - N/A   Overcast